[[{"header":{"parameterUnit":"m.s-1","parameterCategory":1,"la1":30.2991,"la2":30.254,"lo1":-89.0895,"lo2":-89.0444,"dy":0.0017,"dx":0.0017,"nx":28,"ny":28,"refTime":"2024-05-23T03:00:00:Z","depth":0,"parameterNumber":2,"parameterNumberName":"U-component_of_WINDS"},"data":[0,0,0,0,0,0,0,0,0,0,0,0,0,0,0,0,0,0,0,0,0,0,0,0,0,0,0,0,0,0,0,0,0,0,0,0,0,0,0,0,0,0,0,0,0,0,0,0,0,0,0,0,0,0,0,0,0,0,0.375,0.3749,0,0.365,0.3648,0.3647,0.3581,0.358,0.358,0.358,0.347,0.3468,0.3466,0,0,0,0,0,0,0,0,0,0,0,0,0,0.3879,0.3877,0.375,0.3749,0.3747,0.365,0.3648,0.3647,0.3581,0.358,0.358,0.3579,0.3471,0.3468,0.3465,0,0,0,0,0,0,0,0,0,0,0,0,0,0.3805,0.3876,0.375,0.3703,0.3698,0.365,0.3648,0.3647,0.3581,0.358,0.358,0.3579,0.3472,0.3469,0.3465,0.3455,0,0,0.3453,0.3452,0,0,0,0,0,0,0,0,0.3809,0.38,0.3711,0.3706,0.37,0.3627,0.3654,0.3582,0.3581,0.3625,0.358,0.3579,0.3523,0.3515,0.3497,0.3449,0.3445,0.3453,0.3451,0.3449,0.3448,0,0,0,0,0,0,0,0.3815,0.3804,0.371,0.371,0.3703,0.3685,0.3674,0.364,0.3578,0.3621,0.3616,0.3606,0.352,0.3501,0.3494,0.3443,0.3453,0.345,0.3448,0.3446,0.3382,0.3383,0,0,0,0,0,0,0.3828,0.3809,0.3713,0.3707,0.3754,0.3683,0.3671,0.3651,0.3579,0.3567,0.3606,0.3603,0.3508,0.3499,0.349,0.3474,0.3449,0.3446,0.3444,0.3382,0.3382,0.3383,0,0,0,0,0,0,0.3831,0.382,0.3717,0.3757,0.3742,0.3682,0.366,0.3649,0.3631,0.3568,0.3556,0.3599,0.3507,0.3495,0.3464,0.3469,0.3444,0.3441,0.3381,0.3382,0.3383,0.3441,0,0,0,0,0,0,0.3835,0.3822,0.3818,0.3757,0.374,0.3695,0.3661,0.3648,0.3625,0.362,0.3557,0.3546,0.3505,0.347,0.3461,0.3463,0.3438,0.338,0.3381,0.3382,0.3438,0.3443,0.3448,0,0,0,0,0,0.384,0.3837,0.3818,0.3807,0.3735,0.3696,0.3686,0.3641,0.3626,0.3621,0.3581,0.3548,0.347,0.3468,0.3456,0.3458,0.338,0.3381,0.3382,0.3436,0.3442,0.3448,0,0,0,0,0,0,0.3897,0.3828,0.3807,0.3784,0.3747,0.3685,0.3677,0.3649,0.3613,0.3609,0.3552,0.3539,0.3514,0.3482,0.3481,0.3444,0.3421,0.342,0.3466,0.3471,0.3476,0.3484,0.3435,0,0,0,0,0,0.3908,0.3883,0.3823,0.3809,0.3792,0.3738,0.3719,0.3688,0.3646,0.3629,0.3586,0.3544,0.351,0.3489,0.3454,0.3433,0.3418,0.3429,0.3434,0.3438,0.3438,0.3424,0.3428,0.3387,0.3387,0.3387,0,0,0.3928,0.3887,0.3875,0.382,0.3787,0.3761,0.3725,0.3699,0.3679,0.3624,0.3593,0.356,0.351,0.3485,0.3471,0.3458,0.3446,0.344,0.3444,0.3441,0.3426,0.343,0.3434,0.3388,0.3388,0.3388,0,0,0.3953,0.392,0.3905,0.3873,0.3825,0.379,0.3787,0.3729,0.3706,0.3675,0.3633,0.3607,0.355,0.3517,0.3492,0.3506,0.3475,0.3496,0.3521,0.3509,0.3513,0.3515,0.352,0.3523,0.3496,0.3496,0.3496,0,0.3983,0.3945,0.39,0.3878,0.3854,0.3806,0.379,0.3761,0.3703,0.3687,0.3674,0.3602,0.3565,0.3531,0.3535,0.3516,0.351,0.3503,0.3516,0.3518,0.352,0.3524,0.3526,0.3499,0.3499,0.3498,0.3498,0,0.3986,0.396,0.3954,0.3902,0.3878,0.3859,0.3809,0.379,0.3761,0.3727,0.3696,0.365,0.3605,0.3595,0.3565,0.3557,0.355,0.3527,0.3503,0.3528,0.3531,0.3532,0.3503,0.3502,0.3501,0.35,0,0,0.4042,0.3968,0.3966,0.3943,0.3887,0.3865,0.3843,0.3802,0.3787,0.3749,0.3729,0.3682,0.3661,0.3634,0.36,0.3589,0.3604,0.3567,0.3565,0.3576,0.3592,0.361,0.3612,0.3583,0.3583,0.3583,0.3596,0,0.4058,0.4019,0.3979,0.3953,0.3929,0.3884,0.3865,0.3828,0.3795,0.3768,0.3731,0.37,0.3674,0.3657,0.3645,0.3605,0.3606,0.3603,0.3562,0.3561,0.3576,0.3614,0.3632,0.3646,0.3597,0.3597,0.3597,0,0.4071,0.4039,0.4012,0.396,0.3948,0.3932,0.3892,0.3867,0.3824,0.3801,0.3772,0.3736,0.371,0.3689,0.3651,0.3651,0.3631,0.3609,0.3608,0.3602,0.3581,0.3609,0.365,0.3652,0.3598,0.3598,0.3598,0,0.4116,0.4064,0.4042,0.4023,0.3962,0.3952,0.3925,0.3882,0.386,0.3824,0.381,0.377,0.3749,0.3718,0.3673,0.3662,0.364,0.3615,0.3619,0.362,0.3616,0.3617,0.3654,0.3604,0.3604,0.3604,0.3604,0,0.4138,0.4123,0.4062,0.4048,0.403,0.3983,0.3966,0.3935,0.3897,0.3875,0.3833,0.3813,0.3754,0.3727,0.3691,0.3665,0.3655,0.3635,0.3626,0.3639,0.3642,0.3625,0.3623,0.3604,0.3604,0.3604,0.3604,0,0.4183,0.4142,0.4115,0.406,0.4046,0.4035,0.3987,0.3971,0.3938,0.3911,0.3901,0.3847,0.3813,0.3766,0.3716,0.3692,0.3671,0.3656,0.3686,0.3681,0.3687,0.3687,0.3715,0.3717,0.3666,0.3667,0.3667,0,0.42,0.4188,0.4133,0.4117,0.4093,0.4067,0.4046,0.3999,0.3978,0.3929,0.3919,0.3882,0.385,0.3798,0.3752,0.3714,0.3698,0.371,0.3692,0.3706,0.3698,0.3699,0.3698,0.3715,0.3716,0.3716,0.3717,0,0.4234,0.4215,0.4187,0.4153,0.4129,0.4099,0.4066,0.4055,0.4001,0.3979,0.3946,0.3921,0.3872,0.3836,0.3792,0.3762,0.373,0.3724,0.3722,0.3735,0.3754,0.3744,0.3699,0.3723,0.3722,0.3722,0.3721,0.3721,0.4265,0.4253,0.4214,0.4184,0.4156,0.4127,0.411,0.4076,0.4047,0.4006,0.3979,0.3947,0.3904,0.3842,0.3814,0.3787,0.3774,0.3772,0.3771,0.3772,0.3777,0.3759,0.3779,0.3778,0.3778,0.3778,0.3778,0,0.4297,0.427,0.4244,0.4202,0.4179,0.4154,0.4117,0.4099,0.4072,0.4036,0.4006,0.3968,0.3932,0.3886,0.3847,0.3834,0.3818,0.3825,0.3825,0.3819,0.379,0.3795,0.3839,0.3839,0.3839,0.3839,0.3839,0.3839,0.4311,0.429,0.4266,0.423,0.4202,0.4172,0.4154,0.4126,0.4098,0.4058,0.403,0.4001,0.396,0.3918,0.3884,0.3871,0.3859,0.3871,0.3853,0.3827,0.3821,0.3816,0.382,0.3868,0.3868,0.3884,0.3884,0.3884]},{"header":{"parameterUnit":"m.s-1","parameterCategory":1,"la1":30.2991,"la2":30.254,"lo1":-89.0895,"lo2":-89.0444,"dy":0.0017,"dx":0.0017,"nx":28,"ny":28,"refTime":"2024-05-23T03:00:00:Z","depth":0,"parameterNumber":3,"parameterNumberName":"V-component_of_WINDS"},"data":[0,0,0,0,0,0,0,0,0,0,0,0,0,0,0,0,0,0,0,0,0,0,0,0,0,0,0,0,0,0,0,0,0,0,0,0,0,0,0,0,0,0,0,0,0,0,0,0,0,0,0,0,0,0,0,0,0,0,2.7775,2.7774,0,2.7712,2.7712,2.7711,2.7723,2.7724,2.7725,2.7726,2.7651,2.7648,2.7645,0,0,0,0,0,0,0,0,0,0,0,0,0,2.7895,2.7893,2.7775,2.7774,2.7773,2.7713,2.7712,2.7711,2.7723,2.7724,2.7725,2.7727,2.7652,2.7649,2.7645,0,0,0,0,0,0,0,0,0,0,0,0,0,2.7838,2.7892,2.7775,2.7772,2.7771,2.7713,2.7712,2.7711,2.7722,2.7724,2.7726,2.7727,2.7654,2.7649,2.7645,2.7582,0,0,2.7631,2.7629,0,0,0,0,0,0,0,0,2.7842,2.7834,2.7773,2.7772,2.7771,2.7728,2.7727,2.7667,2.7722,2.7741,2.7726,2.7728,2.7675,2.7668,2.7652,2.7578,2.7575,2.763,2.7627,2.7625,2.7624,0,0,0,0,0,0,0,2.7846,2.7837,2.775,2.7772,2.7771,2.7771,2.7765,2.7715,2.7698,2.7739,2.774,2.7733,2.7674,2.7657,2.7651,2.7574,2.763,2.7626,2.7623,2.7622,2.7445,2.7443,0,0,0,0,0,0,2.7852,2.784,2.7752,2.7748,2.7812,2.7767,2.7761,2.7739,2.7699,2.7695,2.7731,2.7734,2.7664,2.7656,2.7648,2.7572,2.7625,2.7621,2.7618,2.7447,2.7444,2.7442,0,0,0,0,0,0,2.7854,2.7844,2.7754,2.7794,2.7783,2.7764,2.774,2.7737,2.772,2.7693,2.7689,2.7718,2.7665,2.7655,2.7599,2.7569,2.7619,2.7615,2.7449,2.7446,2.7443,2.7418,0,0,0,0,0,0,2.7858,2.7845,2.7823,2.7794,2.7781,2.7709,2.7738,2.7735,2.7714,2.7716,2.7679,2.7675,2.7666,2.7606,2.7594,2.7564,2.7611,2.7451,2.7448,2.7444,2.7421,2.7415,2.7409,0,0,0,0,0,2.7862,2.7815,2.7821,2.7811,2.7753,2.7707,2.7699,2.7693,2.7711,2.7687,2.767,2.7676,2.7575,2.76,2.7587,2.7555,2.7453,2.7449,2.7444,2.7424,2.7416,2.7409,0,0,0,0,0,0,2.7837,2.7811,2.7818,2.7761,2.7737,2.7709,2.7679,2.7684,2.7651,2.7654,2.7644,2.7636,2.7579,2.7562,2.759,2.7492,2.7516,2.7509,2.7505,2.7497,2.7491,2.7495,2.7607,0,0,0,0,0,2.7826,2.7793,2.7772,2.7723,2.7712,2.7698,2.7677,2.7675,2.7647,2.7636,2.7615,2.7585,2.7547,2.7521,2.7484,2.742,2.7411,2.7391,2.7385,2.738,2.7373,2.7337,2.7328,2.7428,2.7428,2.7428,0,0,2.7799,2.7782,2.7761,2.7718,2.7699,2.7663,2.7688,2.7649,2.7621,2.7628,2.7576,2.7559,2.7525,2.7465,2.7437,2.7448,2.7344,2.7375,2.7371,2.7366,2.7332,2.7323,2.7314,2.7425,2.7425,2.7426,0,0,2.7735,2.7719,2.7678,2.7659,2.7631,2.7623,2.7613,2.7585,2.7576,2.7524,2.7529,2.7495,2.7429,2.7405,2.7384,2.7313,2.7316,2.7301,2.7267,2.7233,2.7225,2.7218,2.7191,2.7182,2.7295,2.7295,2.7295,0,2.7705,2.7655,2.7654,2.7616,2.7596,2.7606,2.7562,2.7543,2.7503,2.7488,2.7502,2.7422,2.7399,2.7333,2.7317,2.73,2.7286,2.7304,2.7227,2.722,2.7213,2.7187,2.7178,2.7293,2.7293,2.7294,2.7294,0,2.762,2.7584,2.7554,2.752,2.7497,2.7455,2.7446,2.7422,2.7423,2.7412,2.7358,2.7333,2.7292,2.7276,2.7274,2.721,2.7218,2.723,2.7253,2.7202,2.7177,2.7168,2.7291,2.7291,2.7292,2.7292,0,0,2.7533,2.7503,2.7491,2.7477,2.7448,2.7419,2.7378,2.7342,2.7321,2.7293,2.7257,2.7203,2.7215,2.7191,2.7187,2.7157,2.7101,2.7172,2.7171,2.7158,2.7027,2.7018,2.7006,2.7105,2.7103,2.7101,2.703,0,2.7465,2.7397,2.7396,2.7332,2.7299,2.7309,2.7273,2.725,2.7239,2.7207,2.7194,2.7156,2.7175,2.716,2.7131,2.7114,2.7074,2.712,2.7067,2.7066,2.7074,2.6994,2.6983,2.6917,2.7021,2.7019,2.7018,0,2.7375,2.735,2.7283,2.7261,2.7247,2.7215,2.7182,2.7153,2.7126,2.7121,2.7096,2.7097,2.7053,2.7081,2.7018,2.7049,2.7027,2.7016,2.7013,2.7006,2.7037,2.6983,2.6895,2.6885,2.7003,2.7004,2.7005,0,2.7318,2.7266,2.722,2.7207,2.718,2.7158,2.7145,2.7121,2.71,2.707,2.7056,2.702,2.6999,2.6971,2.6961,2.6982,2.6898,2.6925,2.6889,2.6889,2.6869,2.687,2.6775,2.6859,2.6859,2.6859,2.6859,0,2.724,2.7198,2.7195,2.7166,2.7119,2.7119,2.7071,2.706,2.7039,2.7006,2.7012,2.698,2.6971,2.6937,2.6929,2.6877,2.6868,2.686,2.6858,2.6858,2.6859,2.6842,2.6846,2.6856,2.6857,2.6857,2.6858,0,2.7167,2.7163,2.7113,2.7094,2.7088,2.7054,2.7036,2.7007,2.6999,2.6957,2.6947,2.6932,2.6893,2.6882,2.6833,2.6827,2.6767,2.677,2.6777,2.6776,2.674,2.6743,2.6629,2.6614,2.671,2.6709,2.6708,0,2.7117,2.7086,2.7064,2.7045,2.7032,2.7,2.698,2.6978,2.6956,2.6925,2.6899,2.6862,2.6831,2.6767,2.675,2.6712,2.6713,2.6676,2.6707,2.6709,2.6711,2.6712,2.6708,2.6669,2.6668,2.6667,2.6667,0,2.7027,2.7028,2.7,2.6972,2.6949,2.6925,2.6903,2.6885,2.688,2.6855,2.6817,2.6794,2.6746,2.6708,2.6671,2.6654,2.6658,2.6658,2.6647,2.6646,2.6651,2.6647,2.6758,2.6659,2.666,2.6661,2.6661,2.6661,2.6963,2.6936,2.6918,2.6887,2.6871,2.685,2.6823,2.6813,2.6783,2.6747,2.6747,2.6705,2.668,2.6631,2.6613,2.6578,2.6588,2.6573,2.6569,2.6565,2.6562,2.6659,2.6571,2.6571,2.6572,2.6572,2.6572,0,2.6873,2.6863,2.6835,2.6805,2.6781,2.6793,2.6769,2.6746,2.6711,2.6689,2.666,2.6616,2.6579,2.6561,2.6524,2.6499,2.65,2.6489,2.649,2.6486,2.6555,2.6567,2.6489,2.6489,2.6489,2.6489,2.6489,2.6489,2.6823,2.6779,2.6777,2.6724,2.6713,2.6676,2.6661,2.6641,2.6624,2.6576,2.6548,2.6538,2.6516,2.6478,2.6444,2.644,2.6425,2.6412,2.6408,2.6472,2.6481,2.6489,2.65,2.6409,2.6409,2.6342,2.6341,2.6341]}]]